Weather History for Pompano Beach, FL

Change the Weather History Date:

Thursday, February 27, 2014

  Actual Average Record
Temperature  
Mean Temperature 72 °F -  
Max Temperature 79 °F 78 °F 87 °F (1959)
Min Temperature 66 °F 57 °F 40 °F (1965)
Cooling Degree Days 8    
Growing Degree Days 22 (Base 50)    
Moisture  
Dew Point 64 °F    
Average Humidity 77    
Maximum Humidity 94    
Minimum Humidity 54    
Precipitation  
Precipitation 0.24 in - - ()
Sea Level Pressure  
Sea Level Pressure 29.88 in    
Wind  
Wind Speed 9 mph (NW)    
Max Wind Speed 14 mph    
Max Gust Speed 22 mph    
Visibility 8 miles    
Events Rain    
Averages and records for this station are not official NWS values.
T = Trace of Precipitation, MM = Missing Value Source: NWS Daily Summary

Daily Weather History Graph

Daily Weather History Graph

Search for Another Location

Airport:

Trip Planner

Search our weather history database for the weather conditions in past years. The results will help you decide how hot, cold, wet, or windy it might be!

Date:

Astronomy

Feb. 27, 2014 Rise Set
Actual Time 6:45 AM EST 6:20 PM EST
Civil Twilight 6:22 AM EST 6:44 PM EST
Nautical Twilight 5:55 AM EST 7:10 PM EST
Astronomical Twilight 5:29 AM EST 7:37 PM EST
Moon 5:09 AM EST (2/27) 4:49 PM EST (2/27)
Length of Visible Light 12h 21m
Length of Day
11h 34m
Waning Crescent, 4% of the Moon is Illuminated
Feb 27
Waning Crescent
Mar 1
New
Mar 8
First Quarter
Mar 16
Full
Mar 23
Last Quarter

Hourly Weather History & Observations

Time (EST) Temp. Dew Point Humidity Pressure Visibility Wind Dir Wind Speed Gust Speed Precip Events Conditions
12:53 AM 73.9 °F 69.1 °F 85% 29.81 in 9.0 mi SW 8.1 mph - N/A   Clear
1:53 AM 73.9 °F 69.1 °F 85% 29.81 in 9.0 mi SW 9.2 mph - N/A   Clear
2:40 AM 73.4 °F 69.8 °F 88% 29.79 in 9.0 mi WSW 13.8 mph 18.4 mph N/A   Mostly Cloudy
2:53 AM 73.9 °F 69.1 °F 85% 29.79 in 9.0 mi SW 13.8 mph - N/A   Scattered Clouds
3:53 AM 73.9 °F 69.1 °F 85% 29.79 in 9.0 mi SW 12.7 mph - N/A   Overcast
4:53 AM 73.0 °F 69.1 °F 87% 29.79 in 8.0 mi SW 9.2 mph - N/A   Scattered Clouds
5:53 AM 73.9 °F 68.0 °F 82% 29.81 in 10.0 mi West 10.4 mph - N/A   Scattered Clouds
6:53 AM 73.0 °F 66.0 °F 79% 29.84 in 10.0 mi WNW 11.5 mph - N/A   Overcast
7:06 AM 73.4 °F 66.2 °F 78% 29.84 in 10.0 mi WNW 13.8 mph 21.9 mph N/A   Overcast
7:53 AM 72.0 °F 66.0 °F 81% 29.87 in 10.0 mi WNW 9.2 mph - N/A   Overcast
8:26 AM 73.4 °F 66.2 °F 78% 29.87 in 10.0 mi WNW 10.4 mph - N/A   Mostly Cloudy
8:53 AM 71.1 °F 64.0 °F 78% 29.89 in 10.0 mi NW 9.2 mph - N/A   Overcast
9:34 AM 73.4 °F 64.4 °F 73% 29.89 in 10.0 mi NW 10.4 mph - N/A   Overcast
9:42 AM 73.4 °F 62.6 °F 69% 29.90 in 10.0 mi NW 11.5 mph - N/A   Overcast
9:53 AM 73.0 °F 64.0 °F 73% 29.90 in 10.0 mi NNW 10.4 mph - N/A   Overcast
10:10 AM 73.4 °F 62.6 °F 69% 29.90 in 10.0 mi NNW 5.8 mph - N/A   Mostly Cloudy
10:53 AM 75.0 °F 62.1 °F 64% 29.90 in 10.0 mi NNW 8.1 mph - N/A   Scattered Clouds
11:53 AM 75.9 °F 61.0 °F 60% 29.88 in 10.0 mi NW 8.1 mph - N/A   Scattered Clouds
12:53 PM 77.0 °F 61.0 °F 58% 29.87 in 10.0 mi NW 6.9 mph - N/A   Mostly Cloudy
1:53 PM 79.0 °F 61.0 °F 54% 29.85 in 10.0 mi West 12.7 mph - N/A   Scattered Clouds
2:53 PM 78.1 °F 60.1 °F 54% 29.83 in 10.0 mi NW 9.2 mph - N/A   Mostly Cloudy
3:53 PM 77.0 °F 59.0 °F 54% 29.85 in 9.0 mi NW 10.4 mph - N/A   Mostly Cloudy
4:53 PM 75.0 °F 63.0 °F 66% 29.86 in 10.0 mi NNE 10.4 mph - N/A   Overcast
5:53 PM 73.0 °F 63.0 °F 71% 29.87 in 10.0 mi NNE 11.5 mph - N/A   Mostly Cloudy
6:12 PM 73.4 °F 62.6 °F 69% 29.87 in 10.0 mi NNE 12.7 mph - N/A   Overcast
6:53 PM 73.0 °F 61.0 °F 66% 29.88 in 10.0 mi North 6.9 mph - N/A   Mostly Cloudy
7:53 PM 72.0 °F 60.1 °F 66% 29.90 in 10.0 mi North 4.6 mph - N/A   Overcast
8:34 PM 69.8 °F 60.8 °F 73% 29.92 in 1.8 mi NNW 8.1 mph - 0.05 in Rain Heavy Rain
8:43 PM 68.0 °F 60.8 °F 78% 29.93 in 3.0 mi NNW 5.8 mph - 0.06 in Rain Light Rain
8:53 PM 68.0 °F 63.0 °F 84% 29.94 in 4.0 mi NW 9.2 mph - 0.08 in Rain Rain
9:00 PM 66.2 °F 62.6 °F 88% 29.94 in 1.8 mi NW 5.8 mph - 0.04 in Rain Heavy Rain
9:21 PM 66.2 °F 64.4 °F 94% 29.94 in 2.0 mi WNW 3.5 mph - 0.13 in Rain Rain
9:40 PM 66.2 °F 64.4 °F 94% 29.94 in 5.0 mi Calm Calm - 0.15 in Rain Light Rain
9:53 PM 66.0 °F 64.0 °F 93% 29.95 in 10.0 mi WSW 4.6 mph - 0.15 in   Overcast
10:53 PM 66.9 °F 64.0 °F 90% 29.94 in 9.0 mi Calm Calm - 0.01 in   Overcast
11:41 PM 66.2 °F 64.4 °F 94% 29.94 in 7.0 mi WNW 3.5 mph - 0.00 in Rain Light Rain
11:53 PM 66.9 °F 64.0 °F 90% 29.94 in 8.0 mi North 4.6 mph - 0.00 in Rain Light Rain